Simultaneous Nadir Overpasses (SNOs) Predictions

Prediction of SNOs between GOES-15 and NOAA-20 Satellite Orbit:

Table of predicted SNOs for the next 14.0 days since TLE Epoch: 7/31/2020
Index Date Time (GOES-15) GOES-15 Lat,Lon NOAA-20 Lat,Lon Distance(km) Time Diff (sec)
1 08/02/2020 10:01:38 -0.01,-128.38 0.09,-128.87 55.38 80
2 08/03/2020 09:40:13 -0.01,-128.37 -0.90,-124.33 460.02 80
3 08/04/2020 22:02:08 0.01,-128.30 -0.29,-129.63 152.11 80
4 08/05/2020 21:46:03 0.01,-128.29 0.70,-125.10 363.44 80
5 08/07/2020 10:07:50 -0.01,-128.33 0.45,-130.37 232.38 80
6 08/08/2020 09:46:24 -0.00,-128.32 -0.54,-125.83 282.90 80
7 08/09/2020 22:08:20 0.00,-128.24 -0.65,-131.13 329.99 80
8 08/10/2020 21:52:14 0.00,-128.23 0.35,-126.60 185.08 80
9 08/12/2020 10:14:01 -0.01,-128.26 0.81,-131.87 411.51 80
10 08/13/2020 09:52:36 -0.00,-128.24 -0.19,-127.33 103.04 80
